OKEAN-0
1 25860U 99039A 12173.80813647 .00000450 00000-0 75572-4 0 6606
2 25860 097.9359 136.3563 0000619 100.3765 259.7514 14.74224297695252
NOAA-16
1 26536U 00055A 12172.72013117 .00000100 00000-0 78448-4 0 07889
2 26536 099.0941 214.8979 0011327 076.0588 284.1831 14.12751362605532
NOAA-17
1 27453U 02032A 12172.74552719 .00000351 00000-0 16914-3 0 07442
2 27453 098.3357 199.6029 0012364 142.0905 218.1133 14.24448994519262
NOAA-18
1 28654U 05018A 12172.75135246 -.00000091 00000-0 -25034-4 0 02213
2 28654 099.0454 130.8687 0014760 141.4841 218.7381 14.11662370365063
NOAA-19
1 33591U 09005A 12172.76001829 .00000173 00000-0 11971-3 0 04146
2 33591 098.8641 112.5051 0014631 014.9262 345.2355 14.11350686173512
HUBBLE
1 20580U 90037B 12173.90651463 .00001229 00000-0 77732-4 0 201
2 20580 028.4670 112.6569 0003150 114.8918 245.2198 15.02570551 15441
ISS
1 25544U 98067A 12173.89080567 .00017190 00000-0 25092-3 0 7916
2 25544 051.6378 098.8696 0008487 078.9999 354.8665 15.55737194778743
CO-58
1 28895U 05043F 12173.60430504 .00000564 00000-0 12466-3 0 2068
2 28895 097.9120 039.6830 0018818 135.0330 225.2407 14.60652431354301
FALCON
1 30776U 07006E 12172.63311605 .00003515 00000-0 22883-3 0 3729
2 30776 035.4332 255.7958 0002361 026.9835 333.1006 15.07614674290773
MAST
1 31126U 07012K 12172.52576113 .00000635 00000-0 15129-3 0 04918
2 31126 097.8724 183.4316 0094926 100.0788 261.1125 14.54173988274755
CAPE1
1 31130U 07012P 12172.49564149 .00000521 00000-0 12795-3 0 4971
2 31130 097.8821 179.7825 0102661 113.2007 247.9978 14.52954791274257
COMPASS
1 32787U 08021E 12172.71019240 .00001820 00000-0 22428-3 0 03362
2 32787 097.8008 233.9680 0016284 051.5947 308.6711 14.84040052224332
AAUSAT2
1 32788U 08021F 12172.67906079 .00002811 00000-0 34018-3 0 03261
2 32788 097.8044 234.3225 0016097 053.0694 307.1944 14.84368974224351
DO-64
1 32789U 08021G 12173.59851344 .00003112 00000-0 36254-3 0 3414
2 32789 097.8119 237.2578 0015460 046.9108 313.3385 14.85882694224531
CO-66
1 32791U 08021J 12172.70118379 .00001520 00000-0 19102-3 0 3248
2 32791 097.8009 233.6980 0016767 051.7822 308.4888 14.83450877224262
RS-30
1 32953U 08025A 12173.71670317 .00000010 00000-0 00000 0 0 8903
2 32953 082.5021 292.3204 0017590 299.8570 060.0764 12.43024781185128
TACSAT-3
1 35001U 09028A 12121.72616188 .15204951 73582-5 42606-3 0 00016
2 35001 040.4259 351.8840 0007146 275.2650 085.0693 16.45157000166990
PHARMSAT
1 35002U 09028B 12173.78116828 .00110455 00000-0 40705-3 0 9472
2 35002 040.4581 037.8790 0011622 267.3531 092.6007 15.86959301175056
METEOR-M
1 35865U 09049A 12173.72327914 -.00000006 00000-0 17054-4 0 5228
2 35865 098.6546 227.9645 0003223 051.4921 308.6538 14.21864581143241
RS-38
1 35869U 09049E 12173.67340477 .00000041 00000-0 37956-4 0 5282
2 35869 098.6502 227.9103 0005336 046.2558 313.9058 14.22075476143256
JUGNU
1 37839U 11058B 12173.69331724 .00000620 00000-0 19019-3 0 1717
2 37839 019.9653 330.9477 0018442 273.1431 086.6863 14.12063053 35884
SRMSAT
1 37841U 11058D 12173.61246679 .00000264 00000-0 00000 0 0 1716
2 37841 019.9737 336.3916 0012198 240.0653 119.8593 14.10145172 35812
RAX-2
1 37853U 11061D 12172.83705496 .00002830 00000-0 23213-3 0 02248
2 37853 101.7130 214.6845 0246637 340.5836 018.6083 14.80094899034946
AUBIESAT
1 37854U 11061E 12172.85845483 .00003569 00000-0 28578-3 0 02195
2 37854 101.7142 214.9655 0247227 339.9275 019.2331 14.80485375034932
HRBE
1 37855U 11061F 12172.80486426 .00003173 00000-0 25558-3 0 02151
2 37855 101.7160 214.8462 0248010 340.1091 019.0495 14.80336597034928
RS-39
1 38051U 11062C 12173.77543609 .00009420 00000-0 39089-3 0 4433
2 38051 051.6406 137.9690 0013758 055.2883 015.6426 15.24441930 22675
E-STAR
1 38079U 12006C 12173.75879981 .00022595 00000-0 55438-3 0 3045
2 38079 069.4921 305.2305 0743639 242.1656 110.1917 14.14996744 18239
GOLIAT
1 38085U 12006J 12173.75351498 .00021900 00000-0 53290-3 0 2783
2 38085 069.4908 305.5171 0749041 242.3556 109.9286 14.14019890 18221
HORYU-2
1 38340U 12025D 12173.38720398 .00000929 00000-0 16329-3 0 357
2 38340 098.1766 113.1253 0012358 321.3943 038.6371 14.69995866 5092
